Inver Grove Heights, MN

11:31 AM CST on January 17, 2017 (GMT -0600)
South Saint Paul Municipal-Fleming

Weather History for KSGS - August, 2014

Change the Weather History Date:

Wednesday, August 13, 2014

  Actual Average (KSTP) Record (KSTP)
Temperature  
Mean Temperature 72 °F -  
Max Temperature 81 °F 78 °F 89 °F (1996)
Min Temperature 62 °F 58 °F 48 °F (2004)
Cooling Degree Days 6    
Growing Degree Days 22 (Base 50)    
Moisture  
Dew Point 56 °F    
Average Humidity 58    
Maximum Humidity 80    
Minimum Humidity 39    
Precipitation  
Precipitation 0.00 in - - ()
Sea Level Pressure  
Sea Level Pressure 30.05 in    
Wind  
Wind Speed 5 mph (NNW)    
Max Wind Speed 10 mph    
Max Gust Speed -    
Visibility 10 miles    
Events      
Averages and records for this station are not official NWS values.
T = Trace of Precipitation, MM = Missing Value Source: NWS Daily Summary

Daily Weather History Graph

Daily Weather History Graph

Search for Another Location

Airport or City:

Trip Planner

Search our weather history database for the weather conditions in past years. The results will help you decide how hot, cold, wet, or windy it might be!

Date:

Astronomy

Aug. 13, 2014 Rise Set
Actual Time 6:11 AM CDT 8:21 PM CDT
Civil Twilight 5:39 AM CDT 8:53 PM CDT
Nautical Twilight 5:00 AM CDT 9:32 PM CDT
Astronomical Twilight 4:15 AM CDT 10:16 PM CDT
Moon 9:54 PM CDT (8/13) 9:51 AM CDT (8/13)
Length of Visible Light 15h 13m
Length of Day
14h 09m
Waning Gibbous, 87% of the Moon is Illuminated
Aug 13
Waning Gibbous
Aug 17
Last Quarter
Aug 25
New
Sep 2
First Quarter
Sep 8
Full

Hourly Weather History & Observations

Time (CDT) Temp. Heat Index Dew Point Humidity Pressure Visibility Wind Dir Wind Speed Gust Speed Precip Events Conditions
12:11 AM 69.3 °F - 56.3 °F 63% 30.02 in 10.0 mi West 6.9 mph - N/A   Clear
12:30 AM 68.5 °F - 56.7 °F 66% 30.02 in 10.0 mi West 6.9 mph - N/A   Clear
12:51 AM 68.0 °F - 56.7 °F 67% 30.02 in 10.0 mi West 4.6 mph - N/A   Clear
1:10 AM 68.0 °F - 56.7 °F 67% 30.02 in 10.0 mi West 5.8 mph - N/A   Clear
1:30 AM 67.5 °F - 56.8 °F 69% 30.02 in 10.0 mi West 5.8 mph - N/A   Clear
1:51 AM 66.6 °F - 57.2 °F 72% 30.01 in 10.0 mi West 4.6 mph - N/A   Clear
2:10 AM 66.4 °F - 57.2 °F 72% 30.02 in 10.0 mi West 3.5 mph - N/A   Clear
2:31 AM 65.3 °F - 57.2 °F 75% 30.02 in 10.0 mi West 3.5 mph - N/A   Clear
2:50 AM 65.5 °F - 57.2 °F 75% 30.02 in 10.0 mi Calm Calm - N/A   Clear
3:10 AM 64.9 °F - 57.2 °F 76% 30.02 in 10.0 mi West 3.5 mph - N/A   Clear
3:31 AM 64.9 °F - 57.2 °F 76% 30.02 in 10.0 mi Calm Calm - N/A   Clear
3:50 AM 64.9 °F - 57.2 °F 76% 30.02 in 10.0 mi West 3.5 mph - N/A   Scattered Clouds
4:10 AM 64.8 °F - 57.2 °F 76% 30.02 in 10.0 mi Calm Calm - N/A   Clear
4:31 AM 63.9 °F - 57.2 °F 79% 30.02 in 10.0 mi Calm Calm - N/A   Clear
4:50 AM 63.0 °F - 56.8 °F 80% 30.03 in 10.0 mi West 3.5 mph - N/A   Clear
5:11 AM 63.5 °F - 56.8 °F 79% 30.03 in 10.0 mi Calm Calm - N/A   Clear
5:31 AM 63.1 °F - 56.7 °F 79% 30.04 in 10.0 mi Calm Calm - N/A   Clear
5:50 AM 63.7 °F - 56.5 °F 77% 30.05 in 10.0 mi Calm Calm - N/A   Scattered Clouds
6:11 AM 63.9 °F - 56.3 °F 76% 30.05 in 10.0 mi Calm Calm - N/A   Scattered Clouds
6:30 AM 62.8 °F - 56.3 °F 79% 30.06 in 10.0 mi WSW 3.5 mph - N/A   Scattered Clouds
8:30 AM 69.8 °F - 57.7 °F 65% 30.07 in 10.0 mi WNW 4.6 mph - N/A   Clear
9:10 AM 72.1 °F - 57.4 °F 60% 30.07 in 10.0 mi NNW 5.8 mph - N/A   Clear
9:30 AM 72.1 °F - 57.7 °F 60% 30.08 in 10.0 mi North 4.6 mph - N/A   Scattered Clouds
10:10 AM 73.4 °F - 58.8 °F 60% 30.08 in 7.0 mi Calm Calm - N/A   Scattered Clouds
10:30 AM 73.8 °F - 59.0 °F 60% 30.08 in 10.0 mi WSW 3.5 mph - N/A   Scattered Clouds
10:51 AM 76.1 °F - 59.9 °F 57% 30.08 in 10.0 mi Calm Calm - N/A   Clear
11:10 AM 76.5 °F - 59.2 °F 55% 30.08 in 10.0 mi NNW 4.6 mph - N/A   Clear
11:31 AM 77.2 °F - 59.0 °F 53% 30.08 in 10.0 mi North 5.8 mph - N/A   Clear
11:50 AM 77.5 °F - 58.5 °F 52% 30.08 in 10.0 mi North 5.8 mph - N/A   Clear
12:10 PM 79.0 °F - 58.3 °F 49% 30.07 in 10.0 mi North 8.1 mph - N/A   Clear
12:31 PM 78.8 °F - 58.5 °F 50% 30.07 in 10.0 mi North 3.5 mph - N/A   Clear
12:50 PM 79.3 °F - 58.6 °F 49% 30.07 in 10.0 mi NNW 4.6 mph - N/A   Clear
1:10 PM 79.7 °F - 58.3 °F 48% 30.07 in 10.0 mi NNW 10.4 mph - N/A   Scattered Clouds
1:31 PM 79.9 °F - 58.3 °F 48% 30.07 in 10.0 mi NNE 5.8 mph - N/A   Scattered Clouds
1:50 PM 79.5 °F - 57.6 °F 47% 30.07 in 10.0 mi North 9.2 mph - N/A   Scattered Clouds
2:11 PM 80.6 °F 80.7 °F 56.7 °F 44% 30.06 in 10.0 mi North 8.1 mph - N/A   Scattered Clouds
2:30 PM 81.7 °F 81.4 °F 56.5 °F 42% 30.06 in 10.0 mi NE 6.9 mph - N/A   Clear
2:50 PM 81.7 °F 81.3 °F 55.6 °F 41% 30.06 in 10.0 mi NE 6.9 mph - N/A   Clear
3:11 PM 80.6 °F 80.6 °F 55.9 °F 43% 30.06 in 10.0 mi NNE 5.8 mph - N/A   Clear
3:30 PM 80.2 °F 80.3 °F 55.0 °F 42% 30.06 in 10.0 mi NNE 9.2 mph - N/A   Clear
3:50 PM 81.0 °F 80.8 °F 55.8 °F 42% 30.05 in 10.0 mi NNE 8.1 mph - N/A   Clear
4:11 PM 81.7 °F 81.3 °F 55.8 °F 41% 30.05 in 10.0 mi North 8.1 mph - N/A   Scattered Clouds
4:30 PM 81.9 °F 81.2 °F 54.9 °F 39% 30.05 in 10.0 mi North 8.1 mph - N/A   Clear
4:51 PM 80.8 °F 80.7 °F 55.9 °F 42% 30.04 in 10.0 mi NNE 10.4 mph - N/A   Scattered Clouds
5:11 PM 80.8 °F 80.8 °F 56.3 °F 43% 30.04 in 10.0 mi NNE 5.8 mph - N/A   Scattered Clouds
5:30 PM 80.1 °F 80.2 °F 55.9 °F 43% 30.05 in 10.0 mi NNE 9.2 mph - N/A   Clear
5:51 PM 79.0 °F - 55.4 °F 44% 30.05 in 10.0 mi NNE 5.8 mph - N/A   Clear
6:10 PM 79.2 °F - 55.2 °F 44% 30.05 in 10.0 mi NE 9.2 mph - N/A   Clear
6:30 PM 79.0 °F - 54.7 °F 43% 30.05 in 10.0 mi NE 8.1 mph - N/A   Clear
6:51 PM 78.3 °F - 54.0 °F 43% 30.05 in 10.0 mi ENE 6.9 mph - N/A   Clear
7:50 PM 75.6 °F - 52.5 °F 45% 30.06 in 10.0 mi NE 5.8 mph - N/A   Clear
8:30 PM 73.9 °F - 52.7 °F 47% 30.06 in 10.0 mi Calm Calm - N/A   Clear
8:50 PM 72.9 °F - 52.9 °F 49% 30.06 in 10.0 mi NE 3.5 mph - N/A   Clear
11:10 PM 68.2 °F - 52.2 °F 56% 30.10 in 10.0 mi Calm Calm - N/A   Clear
11:30 PM 68.2 °F - 52.2 °F 56% 30.10 in 10.0 mi Calm Calm - N/A   Clear
11:51 PM 67.1 °F - 52.0 °F 58% 30.10 in 10.0 mi Calm Calm - N/A   Clear